Saint Bonnet de Bellac- Haute Vienne - France
Donnes mto: dimanche, 02/10/2011
Date Horaire Temp. E. Hum. E. P.atmo. Pluie Vent Direction Direction Ensoleilleme Solaire P. de rose Temp au vent Rafales
02/10/2011 00:00 16,6 C 67 % 1024,8 hPa 0,0 mm 2,5 km/h (1 Bft) E 90 0 min 0 W/m 10,4 C 16,6 C 4,0 km/h (1 Bft)
02/10/2011 00:05 16,8 C 67 % 1024,8 hPa 0,0 mm 1,4 km/h (1 Bft) E 90 0 min 0 W/m 10,6 C 16,8 C 4,3 km/h (1 Bft)
02/10/2011 00:10 16,8 C 68 % 1024,8 hPa 0,0 mm 0,4 km/h (0 Bft) E-NE 67 0 min 0 W/m 10,9 C 16,8 C 0,4 km/h (0 Bft)
02/10/2011 00:15 16,8 C 68 % 1024,8 hPa 0,0 mm 1,8 km/h (1 Bft) E-SE 112 0 min 0 W/m 10,9 C 16,8 C 5,8 km/h (2 Bft)
02/10/2011 00:20 16,8 C 69 % 1024,8 hPa 0,0 mm 1,8 km/h (1 Bft) N 360 0 min 0 W/m 11,1 C 16,8 C 1,8 km/h (1 Bft)
02/10/2011 00:25 16,8 C 68 % 1024,8 hPa 0,0 mm 0,0 km/h (0 Bft) E-NE 67 0 min 0 W/m 10,9 C 16,8 C 1,4 km/h (1 Bft)
02/10/2011 00:30 16,6 C 69 % 1024,8 hPa 0,0 mm 1,8 km/h (1 Bft) E-NE 67 0 min 0 W/m 10,9 C 16,6 C 3,6 km/h (1 Bft)
02/10/2011 00:35 16,5 C 69 % 1024,7 hPa 0,0 mm 0,4 km/h (0 Bft) E-NE 67 0 min 0 W/m 10,8 C 16,5 C 4,0 km/h (1 Bft)
02/10/2011 00:40 16,4 C 69 % 1024,7 hPa 0,0 mm 0,4 km/h (0 Bft) E 90 0 min 0 W/m 10,7 C 16,4 C 0,4 km/h (0 Bft)
02/10/2011 00:45 16,3 C 70 % 1024,8 hPa 0,0 mm 1,4 km/h (1 Bft) E 90 0 min 0 W/m 10,8 C 16,3 C 5,8 km/h (2 Bft)
02/10/2011 00:50 16,1 C 70 % 1024,7 hPa 0,0 mm 1,1 km/h (1 Bft) E-SE 112 0 min 0 W/m 10,6 C 16,1 C 4,0 km/h (1 Bft)
02/10/2011 00:55 16,0 C 71 % 1024,8 hPa 0,0 mm 1,1 km/h (1 Bft) E 90 0 min 0 W/m 10,7 C 16,0 C 4,0 km/h (1 Bft)
02/10/2011 01:00 15,9 C 71 % 1024,7 hPa 0,0 mm 2,5 km/h (1 Bft) SE 135 0 min 0 W/m 10,6 C 15,9 C 4,0 km/h (1 Bft)
02/10/2011 01:05 15,9 C 71 % 1024,7 hPa 0,0 mm 0,0 km/h (0 Bft) SE 135 0 min 0 W/m 10,6 C 15,9 C 0,0 km/h (0 Bft)
02/10/2011 01:10 15,8 C 71 % 1024,7 hPa 0,0 mm 0,0 km/h (0 Bft) S-SE 157 0 min 0 W/m 10,6 C 15,8 C 0,0 km/h (0 Bft)
02/10/2011 01:15 15,8 C 71 % 1024,7 hPa 0,0 mm 2,2 km/h (1 Bft) E 90 0 min 0 W/m 10,6 C 15,8 C 4,3 km/h (1 Bft)
02/10/2011 01:20 15,8 C 72 % 1024,6 hPa 0,0 mm 0,4 km/h (0 Bft) E 90 0 min 0 W/m 10,8 C 15,8 C 1,4 km/h (1 Bft)
02/10/2011 01:25 15,8 C 72 % 1024,6 hPa 0,0 mm 0,7 km/h (0 Bft) E 90 0 min 0 W/m 10,8 C 15,8 C 2,9 km/h (1 Bft)
02/10/2011 01:30 15,7 C 72 % 1024,6 hPa 0,0 mm 0,7 km/h (0 Bft) E-SE 112 0 min 0 W/m 10,7 C 15,7 C 1,4 km/h (1 Bft)
02/10/2011 01:35 15,7 C 72 % 1024,6 hPa 0,0 mm 1,8 km/h (1 Bft) N-NE 22 0 min 0 W/m 10,7 C 15,7 C 6,8 km/h (2 Bft)
02/10/2011 01:40 15,6 C 73 % 1024,6 hPa 0,0 mm 0,4 km/h (0 Bft) E 90 0 min 0 W/m 10,8 C 15,6 C 0,4 km/h (0 Bft)
02/10/2011 01:45 15,6 C 73 % 1024,5 hPa 0,0 mm 0,0 km/h (0 Bft) E-SE 112 0 min 0 W/m 10,8 C 15,6 C 0,0 km/h (0 Bft)
02/10/2011 01:50 15,5 C 72 % 1024,5 hPa 0,0 mm 1,8 km/h (1 Bft) SE 135 0 min 0 W/m 10,5 C 15,5 C 4,3 km/h (1 Bft)
02/10/2011 01:55 15,4 C 73 % 1024,5 hPa 0,0 mm 0,0 km/h (0 Bft) SE 135 0 min 0 W/m 10,6 C 15,4 C 0,0 km/h (0 Bft)
02/10/2011 02:00 15,4 C 73 % 1024,5 hPa 0,0 mm 1,4 km/h (1 Bft) E-SE 112 0 min 0 W/m 10,6 C 15,4 C 4,0 km/h (1 Bft)
02/10/2011 02:05 15,4 C 73 % 1024,6 hPa 0,0 mm 3,2 km/h (1 Bft) E-NE 67 0 min 0 W/m 10,6 C 15,4 C 4,3 km/h (1 Bft)
02/10/2011 02:10 15,4 C 73 % 1024,5 hPa 0,0 mm 0,7 km/h (0 Bft) E-NE 67 0 min 0 W/m 10,6 C 15,4 C 4,3 km/h (1 Bft)
02/10/2011 02:15 15,3 C 73 % 1024,6 hPa 0,0 mm 1,1 km/h (1 Bft) E-SE 112 0 min 0 W/m 10,5 C 15,3 C 4,0 km/h (1 Bft)
02/10/2011 02:20 15,3 C 73 % 1024,6 hPa 0,0 mm 0,4 km/h (0 Bft) E-SE 112 0 min 0 W/m 10,5 C 15,3 C 0,4 km/h (0 Bft)
02/10/2011 02:25 15,2 C 74 % 1024,6 hPa 0,0 mm 1,8 km/h (1 Bft) SE 135 0 min 0 W/m 10,6 C 15,2 C 3,6 km/h (1 Bft)
02/10/2011 02:30 15,2 C 74 % 1024,7 hPa 0,0 mm 2,9 km/h (1 Bft) E-NE 67 0 min 0 W/m 10,6 C 15,2 C 4,3 km/h (1 Bft)
02/10/2011 02:35 15,2 C 74 % 1024,6 hPa 0,0 mm 1,4 km/h (1 Bft) E-SE 112 0 min 0 W/m 10,6 C 15,2 C 8,3 km/h (2 Bft)
02/10/2011 02:40 15,1 C 74 % 1024,7 hPa 0,0 mm 1,4 km/h (1 Bft) NE 45 0 min 0 W/m 10,5 C 15,1 C 4,3 km/h (1 Bft)
02/10/2011 02:45 15,1 C 75 % 1024,7 hPa 0,0 mm 1,4 km/h (1 Bft) SE 135 0 min 0 W/m 10,7 C 15,1 C 4,0 km/h (1 Bft)
02/10/2011 02:50 15,1 C 75 % 1024,7 hPa 0,0 mm 2,2 km/h (1 Bft) S-SE 157 0 min 0 W/m 10,7 C 15,1 C 4,0 km/h (1 Bft)
02/10/2011 02:55 14,9 C 74 % 1024,6 hPa 0,0 mm 3,2 km/h (1 Bft) E-SE 112 0 min 0 W/m 10,3 C 14,9 C 6,5 km/h (2 Bft)
02/10/2011 03:02 14,8 C 75 % 1024,6 hPa 0,0 mm 2,2 km/h (1 Bft) S-SE 157 0 min 0 W/m 10,4 C 14,8 C 6,8 km/h (2 Bft)
02/10/2011 03:05 14,8 C 75 % 1024,6 hPa 0,0 mm 0,7 km/h (0 Bft) E-NE 67 0 min 0 W/m 10,4 C 14,8 C 0,7 km/h (0 Bft)
02/10/2011 03:10 14,7 C 75 % 1024,5 hPa 0,0 mm 0,0 km/h (0 Bft) E-SE 112 0 min 0 W/m 10,3 C 14,7 C 0,0 km/h (0 Bft)
02/10/2011 03:15 14,6 C 75 % 1024,5 hPa 0,0 mm 0,0 km/h (0 Bft) S 180 0 min 0 W/m 10,2 C 14,6 C 0,0 km/h (0 Bft)
02/10/2011 03:20 14,4 C 74 % 1024,6 hPa 0,0 mm 0,0 km/h (0 Bft) S 180 0 min 0 W/m 9,8 C 14,4 C 0,0 km/h (0 Bft)
02/10/2011 03:25 14,3 C 74 % 1024,5 hPa 0,0 mm 0,4 km/h (0 Bft) E 90 0 min 0 W/m 9,7 C 14,3 C 3,6 km/h (1 Bft)
02/10/2011 03:30 14,1 C 75 % 1024,5 hPa 0,0 mm 2,9 km/h (1 Bft) E 90 0 min 0 W/m 9,7 C 14,1 C 2,9 km/h (1 Bft)
02/10/2011 03:35 14,1 C 75 % 1024,5 hPa 0,0 mm 0,4 km/h (0 Bft) E-SE 112 0 min 0 W/m 9,7 C 14,1 C 0,4 km/h (0 Bft)
02/10/2011 03:40 14,0 C 75 % 1024,5 hPa 0,0 mm 3,2 km/h (1 Bft) E 90 0 min 0 W/m 9,6 C 14,0 C 4,3 km/h (1 Bft)
02/10/2011 03:45 14,0 C 76 % 1024,4 hPa 0,0 mm 2,9 km/h (1 Bft) E 90 0 min 0 W/m 9,8 C 14,0 C 4,3 km/h (1 Bft)
02/10/2011 03:50 14,0 C 76 % 1024,4 hPa 0,0 mm 3,2 km/h (1 Bft) E-SE 112 0 min 0 W/m 9,8 C 14,0 C 4,3 km/h (1 Bft)
02/10/2011 03:55 14,0 C 76 % 1024,5 hPa 0,0 mm 2,2 km/h (1 Bft) E-SE 112 0 min 0 W/m 9,8 C 14,0 C 3,6 km/h (1 Bft)
02/10/2011 04:00 14,0 C 76 % 1024,4 hPa 0,0 mm 1,1 km/h (1 Bft) E-SE 112 0 min 0 W/m 9,8 C 14,0 C 3,2 km/h (1 Bft)
02/10/2011 04:05 14,0 C 76 % 1024,4 hPa 0,0 mm 2,9 km/h (1 Bft) E-SE 112 0 min 0 W/m 9,8 C 14,0 C 4,3 km/h (1 Bft)
02/10/2011 04:10 14,1 C 76 % 1024,5 hPa 0,0 mm 1,4 km/h (1 Bft) E-SE 112 0 min 0 W/m 9,9 C 14,1 C 3,6 km/h (1 Bft)
02/10/2011 04:15 14,1 C 76 % 1024,4 hPa 0,0 mm 2,5 km/h (1 Bft) E-SE 112 0 min 0 W/m 9,9 C 14,1 C 3,2 km/h (1 Bft)
02/10/2011 04:20 14,2 C 76 % 1024,4 hPa 0,0 mm 3,2 km/h (1 Bft) E-SE 112 0 min 0 W/m 10,0 C 14,2 C 6,5 km/h (2 Bft)
02/10/2011 04:25 14,2 C 76 % 1024,4 hPa 0,0 mm 2,2 km/h (1 Bft) E 90 0 min 0 W/m 10,0 C 14,2 C 4,0 km/h (1 Bft)
02/10/2011 04:30 14,3 C 76 % 1024,3 hPa 0,0 mm 2,5 km/h (1 Bft) E-SE 112 0 min 0 W/m 10,1 C 14,3 C 4,3 km/h (1 Bft)
02/10/2011 04:35 14,3 C 75 % 1024,4 hPa 0,0 mm 0,4 km/h (0 Bft) E-SE 112 0 min 0 W/m 9,9 C 14,3 C 2,9 km/h (1 Bft)
02/10/2011 04:40 14,2 C 75 % 1024,3 hPa 0,0 mm 0,7 km/h (0 Bft) E-SE 112 0 min 0 W/m 9,8 C 14,2 C 4,0 km/h (1 Bft)
02/10/2011 04:45 14,1 C 75 % 1024,3 hPa 0,0 mm 0,4 km/h (0 Bft) E 90 0 min 0 W/m 9,7 C 14,1 C 0,4 km/h (0 Bft)
02/10/2011 04:50 14,0 C 75 % 1024,3 hPa 0,0 mm 0,0 km/h (0 Bft) E 90 0 min 0 W/m 9,6 C 14,0 C 2,9 km/h (1 Bft)
02/10/2011 04:55 13,9 C 75 % 1024,2 hPa 0,0 mm 0,0 km/h (0 Bft) E-SE 112 0 min 0 W/m 9,5 C 13,9 C 0,0 km/h (0 Bft)
02/10/2011 05:00 13,8 C 75 % 1024,2 hPa 0,0 mm 0,0 km/h (0 Bft) E-SE 112 0 min 0 W/m 9,4 C 13,8 C 0,0 km/h (0 Bft)
02/10/2011 05:05 13,8 C 75 % 1024,2 hPa 0,0 mm 0,0 km/h (0 Bft) E 90 0 min 0 W/m 9,4 C 13,8 C 0,0 km/h (0 Bft)
02/10/2011 05:10 13,6 C 75 % 1024,2 hPa 0,0 mm 0,0 km/h (0 Bft) E-NE 67 0 min 0 W/m 9,3 C 13,6 C 0,0 km/h (0 Bft)
02/10/2011 05:15 13,5 C 75 % 1024,2 hPa 0,0 mm 0,0 km/h (0 Bft) E 90 0 min 0 W/m 9,2 C 13,5 C 0,0 km/h (0 Bft)
02/10/2011 05:20 13,4 C 75 % 1024,2 hPa 0,0 mm 0,0 km/h (0 Bft) E 90 0 min 0 W/m 9,1 C 13,4 C 0,0 km/h (0 Bft)
02/10/2011 05:25 13,3 C 76 % 1024,1 hPa 0,0 mm 0,0 km/h (0 Bft) E 90 0 min 0 W/m 9,2 C 13,3 C 0,0 km/h (0 Bft)
02/10/2011 05:30 13,1 C 76 % 1024,1 hPa 0,0 mm 0,0 km/h (0 Bft) E 90 0 min 0 W/m 9,0 C 13,1 C 0,0 km/h (0 Bft)
02/10/2011 05:35 13,1 C 76 % 1024,0 hPa 0,0 mm 0,4 km/h (0 Bft) E-NE 67 0 min 0 W/m 9,0 C 13,1 C 2,9 km/h (1 Bft)
02/10/2011 05:40 12,9 C 76 % 1024,1 hPa 0,0 mm 2,9 km/h (1 Bft) E 90 0 min 0 W/m 8,8 C 12,9 C 4,3 km/h (1 Bft)
02/10/2011 05:45 12,9 C 77 % 1024,1 hPa 0,0 mm 2,9 km/h (1 Bft) E 90 0 min 0 W/m 9,0 C 12,9 C 4,3 km/h (1 Bft)
02/10/2011 05:50 13,1 C 77 % 1024,2 hPa 0,0 mm 2,5 km/h (1 Bft) E-SE 112 0 min 0 W/m 9,2 C 13,1 C 6,1 km/h (2 Bft)
02/10/2011 05:55 13,2 C 78 % 1024,2 hPa 0,0 mm 1,8 km/h (1 Bft) SE 135 0 min 0 W/m 9,4 C 13,2 C 4,0 km/h (1 Bft)
02/10/2011 06:00 13,3 C 78 % 1024,3 hPa 0,0 mm 1,1 km/h (1 Bft) SE 135 0 min 0 W/m 9,5 C 13,3 C 3,6 km/h (1 Bft)
02/10/2011 06:05 13,4 C 77 % 1024,4 hPa 0,0 mm 1,1 km/h (1 Bft) N 360 0 min 0 W/m 9,5 C 13,4 C 1,1 km/h (1 Bft)
02/10/2011 06:10 13,4 C 77 % 1024,4 hPa 0,0 mm 0,0 km/h (0 Bft) SE 135 0 min 0 W/m 9,5 C 13,4 C 0,0 km/h (0 Bft)
02/10/2011 06:15 13,3 C 77 % 1024,4 hPa 0,0 mm 2,2 km/h (1 Bft) E 90 0 min 0 W/m 9,4 C 13,3 C 4,0 km/h (1 Bft)
02/10/2011 06:20 13,4 C 77 % 1024,3 hPa 0,0 mm 0,0 km/h (0 Bft) E-SE 112 0 min 0 W/m 9,5 C 13,4 C 0,0 km/h (0 Bft)
02/10/2011 06:25 13,3 C 77 % 1024,3 hPa 0,0 mm 1,8 km/h (1 Bft) E 90 0 min 0 W/m 9,4 C 13,3 C 2,9 km/h (1 Bft)
02/10/2011 06:30 13,2 C 77 % 1024,4 hPa 0,0 mm 1,8 km/h (1 Bft) E-SE 112 0 min 0 W/m 9,3 C 13,2 C 4,0 km/h (1 Bft)
02/10/2011 06:35 13,2 C 78 % 1024,4 hPa 0,0 mm 2,5 km/h (1 Bft) E-SE 112 0 min 0 W/m 9,4 C 13,2 C 3,6 km/h (1 Bft)
02/10/2011 06:40 13,2 C 78 % 1024,3 hPa 0,0 mm 2,9 km/h (1 Bft) E 90 0 min 0 W/m 9,4 C 13,2 C 4,0 km/h (1 Bft)
02/10/2011 06:45 13,1 C 77 % 1024,4 hPa 0,0 mm 0,4 km/h (0 Bft) E-SE 112 0 min 0 W/m 9,2 C 13,1 C 3,6 km/h (1 Bft)
02/10/2011 06:50 13,1 C 78 % 1024,4 hPa 0,0 mm 2,2 km/h (1 Bft) E-SE 112 0 min 0 W/m 9,4 C 13,1 C 4,3 km/h (1 Bft)
02/10/2011 06:55 13,1 C 78 % 1024,5 hPa 0,0 mm 1,4 km/h (1 Bft) E-SE 112 0 min 0 W/m 9,4 C 13,1 C 3,6 km/h (1 Bft)
02/10/2011 07:00 13,0 C 78 % 1024,5 hPa 0,0 mm 1,1 km/h (1 Bft) E-SE 112 0 min 0 W/m 9,3 C 13,0 C 3,6 km/h (1 Bft)
02/10/2011 07:05 12,9 C 77 % 1024,4 hPa 0,0 mm 0,0 km/h (0 Bft) E-SE 112 0 min 0 W/m 9,0 C 12,9 C 0,0 km/h (0 Bft)
02/10/2011 07:10 12,8 C 77 % 1024,5 hPa 0,0 mm 1,8 km/h (1 Bft) E-NE 67 0 min 0 W/m 8,9 C 12,8 C 4,0 km/h (1 Bft)
02/10/2011 07:15 12,8 C 78 % 1024,5 hPa 0,0 mm 0,0 km/h (0 Bft) E 90 0 min 0 W/m 9,1 C 12,8 C 0,0 km/h (0 Bft)
02/10/2011 07:20 12,6 C 77 % 1024,5 hPa 0,0 mm 0,0 km/h (0 Bft) E-SE 112 0 min 0 W/m 8,7 C 12,6 C 0,0 km/h (0 Bft)
02/10/2011 07:25 12,5 C 78 % 1024,5 hPa 0,0 mm 3,6 km/h (1 Bft) E 90 0 min 0 W/m 8,8 C 12,5 C 4,3 km/h (1 Bft)
02/10/2011 07:30 12,4 C 78 % 1024,6 hPa 0,0 mm 0,0 km/h (0 Bft) E-SE 112 0 min 0 W/m 8,7 C 12,4 C 0,0 km/h (0 Bft)
02/10/2011 07:35 12,3 C 78 % 1024,7 hPa 0,0 mm 2,5 km/h (1 Bft) E 90 0 min 0 W/m 8,6 C 12,3 C 4,0 km/h (1 Bft)
02/10/2011 07:40 12,3 C 79 % 1024,7 hPa 0,0 mm 0,0 km/h (0 Bft) E 90 0 min 0 W/m 8,8 C 12,3 C 0,0 km/h (0 Bft)
02/10/2011 07:45 12,2 C 79 % 1024,7 hPa 0,0 mm 1,1 km/h (1 Bft) SE 135 0 min 0 W/m 8,7 C 12,2 C 4,3 km/h (1 Bft)
02/10/2011 07:50 12,1 C 79 % 1024,7 hPa 0,0 mm 1,1 km/h (1 Bft) E-SE 112 0 min 0 W/m 8,6 C 12,1 C 3,6 km/h (1 Bft)
02/10/2011 07:55 12,1 C 79 % 1024,8 hPa 0,0 mm 0,4 km/h (0 Bft) E 90 0 min 0 W/m 8,6 C 12,1 C 0,4 km/h (0 Bft)
02/10/2011 08:00 11,9 C 79 % 1024,9 hPa 0,0 mm 0,0 km/h (0 Bft) SE 135 0 min 0 W/m 8,4 C 11,9 C 0,0 km/h (0 Bft)
02/10/2011 08:05 11,8 C 79 % 1024,9 hPa 0,0 mm 0,0 km/h (0 Bft) SE 135 2 min 0 W/m 8,3 C 11,8 C 0,0 km/h (0 Bft)
02/10/2011 08:10 11,7 C 79 % 1024,9 hPa 0,0 mm 0,0 km/h (0 Bft) S 180 2 min 0 W/m 8,2 C 11,7 C 0,0 km/h (0 Bft)
02/10/2011 08:15 11,5 C 79 % 1025,0 hPa 0,0 mm 0,0 km/h (0 Bft) S 180 2 min 0 W/m 8,0 C 11,5 C 0,0 km/h (0 Bft)
02/10/2011 08:20 11,4 C 80 % 1025,0 hPa 0,0 mm 0,0 km/h (0 Bft) E-SE 112 2 min 0 W/m 8,1 C 11,4 C 0,0 km/h (0 Bft)
02/10/2011 08:25 11,3 C 80 % 1025,0 hPa 0,0 mm 0,0 km/h (0 Bft) E-SE 112 2 min 0 W/m 8,0 C 11,3 C 0,0 km/h (0 Bft)
02/10/2011 08:30 11,3 C 80 % 1024,9 hPa 0,0 mm 2,2 km/h (1 Bft) E-NE 67 2 min 0 W/m 8,0 C 11,3 C 6,1 km/h (2 Bft)
02/10/2011 08:35 11,4 C 81 % 1024,9 hPa 0,0 mm 0,4 km/h (0 Bft) E-SE 112 2 min 0 W/m 8,3 C 11,4 C 3,6 km/h (1 Bft)
02/10/2011 08:40 11,6 C 81 % 1025,0 hPa 0,0 mm 0,7 km/h (0 Bft) E-SE 112 2 min 0 W/m 8,5 C 11,6 C 4,0 km/h (1 Bft)
02/10/2011 08:45 11,6 C 81 % 1025,1 hPa 0,0 mm 0,7 km/h (0 Bft) E-NE 67 2 min 0 W/m 8,5 C 11,6 C 0,7 km/h (0 Bft)
02/10/2011 08:50 11,8 C 82 % 1025,1 hPa 0,0 mm 2,9 km/h (1 Bft) N-NE 22 2 min 0 W/m 8,8 C 11,8 C 9,4 km/h (2 Bft)
02/10/2011 08:55 11,9 C 82 % 1025,2 hPa 0,0 mm 1,4 km/h (1 Bft) E-SE 112 2 min 0 W/m 8,9 C 11,9 C 4,3 km/h (1 Bft)
02/10/2011 09:00 12,2 C 82 % 1025,3 hPa 0,0 mm 3,6 km/h (1 Bft) E-SE 112 2 min 0 W/m 9,2 C 12,2 C 5,4 km/h (2 Bft)
02/10/2011 09:05 12,5 C 81 % 1025,3 hPa 0,0 mm 2,9 km/h (1 Bft) E-SE 112 2 min 0 W/m 9,3 C 12,5 C 3,2 km/h (1 Bft)
02/10/2011 09:10 12,8 C 81 % 1025,3 hPa 0,0 mm 1,1 km/h (1 Bft) E-SE 112 2 min 0 W/m 9,6 C 12,8 C 1,1 km/h (1 Bft)
02/10/2011 09:15 13,1 C 80 % 1025,3 hPa 0,0 mm 2,9 km/h (1 Bft) E-SE 112 2 min 0 W/m 9,7 C 13,1 C 4,0 km/h (1 Bft)
02/10/2011 09:20 13,4 C 80 % 1025,3 hPa 0,0 mm 1,4 km/h (1 Bft) E-SE 112 2 min 0 W/m 10,0 C 13,4 C 4,0 km/h (1 Bft)
02/10/2011 09:25 13,8 C 79 % 1025,5 hPa 0,0 mm 1,8 km/h (1 Bft) SE 135 2 min 0 W/m 10,2 C 13,8 C 3,2 km/h (1 Bft)
02/10/2011 09:30 14,2 C 79 % 1025,5 hPa 0,0 mm 2,9 km/h (1 Bft) E-SE 112 2 min 0 W/m 10,6 C 14,2 C 4,3 km/h (1 Bft)
02/10/2011 09:35 14,5 C 77 % 1025,5 hPa 0,0 mm 0,7 km/h (0 Bft) E-SE 112 2 min 0 W/m 10,5 C 14,5 C 0,7 km/h (0 Bft)
02/10/2011 09:40 14,8 C 76 % 1025,5 hPa 0,0 mm 3,2 km/h (1 Bft) E-SE 112 2 min 0 W/m 10,6 C 14,8 C 4,3 km/h (1 Bft)
02/10/2011 09:45 15,1 C 75 % 1025,5 hPa 0,0 mm 0,0 km/h (0 Bft) E-SE 112 2 min 0 W/m 10,7 C 15,1 C 0,0 km/h (0 Bft)
02/10/2011 09:50 15,6 C 75 % 1025,6 hPa 0,0 mm 0,0 km/h (0 Bft) E-SE 112 2 min 0 W/m 11,2 C 15,6 C 0,0 km/h (0 Bft)
02/10/2011 09:55 15,9 C 74 % 1025,6 hPa 0,0 mm 1,4 km/h (1 Bft) E-SE 112 2 min 0 W/m 11,3 C 15,9 C 4,3 km/h (1 Bft)
02/10/2011 10:00 16,3 C 74 % 1025,7 hPa 0,0 mm 0,4 km/h (0 Bft) SE 135 2 min 0 W/m 11,7 C 16,3 C 0,4 km/h (0 Bft)
02/10/2011 10:05 16,8 C 72 % 1025,6 hPa 0,0 mm 0,0 km/h (0 Bft) SE 135 0 min 0 W/m 11,7 C 16,8 C 0,0 km/h (0 Bft)
02/10/2011 10:10 17,4 C 72 % 1025,7 hPa 0,0 mm 0,0 km/h (0 Bft) SE 135 0 min 0 W/m 12,3 C 17,4 C 0,0 km/h (0 Bft)
02/10/2011 10:15 17,9 C 70 % 1025,6 hPa 0,0 mm 0,0 km/h (0 Bft) SE 135 0 min 0 W/m 12,3 C 17,9 C 0,0 km/h (0 Bft)
02/10/2011 10:20 18,5 C 69 % 1025,7 hPa 0,0 mm 0,0 km/h (0 Bft) SE 135 0 min 0 W/m 12,7 C 18,5 C 0,0 km/h (0 Bft)
02/10/2011 10:25 19,0 C 67 % 1025,7 hPa 0,0 mm 1,4 km/h (1 Bft) E-SE 112 0 min 0 W/m 12,7 C 19,0 C 4,0 km/h (1 Bft)
02/10/2011 10:30 19,4 C 66 % 1025,7 hPa 0,0 mm 0,0 km/h (0 Bft) SE 135 0 min 0 W/m 12,9 C 19,4 C 0,0 km/h (0 Bft)
02/10/2011 10:35 19,8 C 65 % 1025,8 hPa 0,0 mm 0,0 km/h (0 Bft) SE 135 0 min 0 W/m 13,0 C 19,8 C 0,0 km/h (0 Bft)
02/10/2011 10:40 20,4 C 65 % 1025,7 hPa 0,0 mm 0,0 km/h (0 Bft) SE 135 0 min 0 W/m 13,6 C 20,4 C 0,0 km/h (0 Bft)
02/10/2011 10:45 20,8 C 63 % 1025,7 hPa 0,0 mm 1,4 km/h (1 Bft) E-NE 67 0 min 0 W/m 13,5 C 20,8 C 3,6 km/h (1 Bft)
02/10/2011 10:50 21,3 C 61 % 1025,8 hPa 0,0 mm 0,4 km/h (0 Bft) E 90 0 min 0 W/m 13,5 C 21,3 C 3,2 km/h (1 Bft)
02/10/2011 10:55 21,6 C 61 % 1025,8 hPa 0,0 mm 0,0 km/h (0 Bft) E 90 0 min 0 W/m 13,7 C 21,6 C 0,0 km/h (0 Bft)
02/10/2011 11:00 22,0 C 60 % 1025,8 hPa 0,0 mm 0,0 km/h (0 Bft) E 90 0 min 0 W/m 13,9 C 22,0 C 0,0 km/h (0 Bft)
02/10/2011 11:05 22,4 C 60 % 1025,8 hPa 0,0 mm 0,0 km/h (0 Bft) E 90 0 min 0 W/m 14,2 C 22,4 C 0,0 km/h (0 Bft)
02/10/2011 11:10 22,8 C 58 % 1025,8 hPa 0,0 mm 0,0 km/h (0 Bft) E 90 0 min 0 W/m 14,1 C 22,8 C 0,0 km/h (0 Bft)
02/10/2011 11:15 23,1 C 57 % 1025,8 hPa 0,0 mm 0,0 km/h (0 Bft) E 90 0 min 0 W/m 14,1 C 23,1 C 0,0 km/h (0 Bft)
02/10/2011 11:20 23,5 C 54 % 1025,8 hPa 0,0 mm 0,0 km/h (0 Bft) E 90 0 min 0 W/m 13,6 C 23,5 C 0,0 km/h (0 Bft)
02/10/2011 11:25 23,8 C 55 % 1025,8 hPa 0,0 mm 0,0 km/h (0 Bft) E 90 0 min 0 W/m 14,2 C 23,8 C 0,0 km/h (0 Bft)
02/10/2011 11:30 24,1 C 53 % 1025,8 hPa 0,0 mm 0,0 km/h (0 Bft) E 90 0 min 0 W/m 13,9 C 24,1 C 0,0 km/h (0 Bft)
02/10/2011 11:35 24,6 C 52 % 1025,9 hPa 0,0 mm 0,0 km/h (0 Bft) E 90 0 min 0 W/m 14,1 C 24,6 C 0,0 km/h (0 Bft)
02/10/2011 11:40 24,8 C 53 % 1025,9 hPa 0,0 mm 0,0 km/h (0 Bft) E 90 0 min 0 W/m 14,6 C 24,8 C 0,0 km/h (0 Bft)
02/10/2011 11:45 25,4 C 51 % 1025,9 hPa 0,0 mm 0,0 km/h (0 Bft) E-NE 67 0 min 0 W/m 14,5 C 25,4 C 0,0 km/h (0 Bft)
02/10/2011 11:50 25,8 C 51 % 1025,9 hPa 0,0 mm 0,0 km/h (0 Bft) E-NE 67 0 min 0 W/m 14,9 C 25,8 C 0,0 km/h (0 Bft)
02/10/2011 11:55 26,3 C 49 % 1026,0 hPa 0,0 mm 1,8 km/h (1 Bft) NE 45 0 min 0 W/m 14,7 C 26,3 C 1,8 km/h (1 Bft)
02/10/2011 12:00 26,6 C 48 % 1026,1 hPa 0,0 mm 1,4 km/h (1 Bft) NE 45 0 min 0 W/m 14,7 C 26,6 C 3,2 km/h (1 Bft)
02/10/2011 12:05 26,9 C 46 % 1026,1 hPa 0,0 mm 0,0 km/h (0 Bft) NE 45 0 min 0 W/m 14,3 C 26,9 C 0,0 km/h (0 Bft)
02/10/2011 12:10 27,1 C 46 % 1026,0 hPa 0,0 mm 0,4 km/h (0 Bft) NE 45 0 min 0 W/m 14,5 C 27,1 C 0,4 km/h (0 Bft)
02/10/2011 12:15 27,4 C 43 % 1026,0 hPa 0,0 mm 0,0 km/h (0 Bft) NE 45 0 min 0 W/m 13,7 C 27,4 C 0,0 km/h (0 Bft)
02/10/2011 12:20 27,7 C 43 % 1025,9 hPa 0,0 mm 1,8 km/h (1 Bft) E-NE 67 0 min 0 W/m 14,0 C 27,7 C 2,9 km/h (1 Bft)
02/10/2011 12:25 28,1 C 42 % 1026,0 hPa 0,0 mm 0,0 km/h (0 Bft) NE 45 0 min 0 W/m 14,0 C 28,1 C 0,0 km/h (0 Bft)
02/10/2011 12:30 28,4 C 41 % 1026,2 hPa 0,0 mm 0,4 km/h (0 Bft) NE 45 0 min 0 W/m 13,9 C 28,4 C 3,2 km/h (1 Bft)
02/10/2011 12:35 28,6 C 40 % 1026,1 hPa 0,0 mm 1,8 km/h (1 Bft) N-NE 22 0 min 0 W/m 13,7 C 28,6 C 1,8 km/h (1 Bft)
02/10/2011 12:40 28,8 C 39 % 1026,2 hPa 0,0 mm 1,1 km/h (1 Bft) N-NE 22 0 min 0 W/m 13,4 C 28,8 C 3,6 km/h (1 Bft)
02/10/2011 12:45 28,9 C 39 % 1026,1 hPa 0,0 mm 1,8 km/h (1 Bft) N-NE 22 0 min 0 W/m 13,5 C 28,9 C 1,8 km/h (1 Bft)
02/10/2011 12:50 29,2 C 39 % 1026,1 hPa 0,0 mm 0,7 km/h (0 Bft) NE 45 0 min 0 W/m 13,8 C 29,2 C 3,6 km/h (1 Bft)
02/10/2011 12:55 29,3 C 39 % 1026,0 hPa 0,0 mm 0,0 km/h (0 Bft) E-NE 67 0 min 0 W/m 13,9 C 29,3 C 0,0 km/h (0 Bft)
02/10/2011 13:00 29,3 C 38 % 1026,0 hPa 0,0 mm 1,1 km/h (1 Bft) NE 45 0 min 0 W/m 13,5 C 29,3 C 4,0 km/h (1 Bft)
02/10/2011 13:05 29,5 C 38 % 1026,0 hPa 0,0 mm 0,0 km/h (0 Bft) N-NE 22 0 min 0 W/m 13,7 C 29,5 C 3,2 km/h (1 Bft)
02/10/2011 13:10 29,4 C 38 % 1025,9 hPa 0,0 mm 0,7 km/h (0 Bft) N-NE 22 0 min 0 W/m 13,6 C 29,4 C 0,7 km/h (0 Bft)
02/10/2011 13:15 29,5 C 38 % 1025,9 hPa 0,0 mm 1,4 km/h (1 Bft) NE 45 0 min 0 W/m 13,7 C 29,5 C 4,3 km/h (1 Bft)
02/10/2011 13:20 29,6 C 38 % 1025,8 hPa 0,0 mm 2,9 km/h (1 Bft) NE 45 0 min 0 W/m 13,8 C 29,6 C 4,7 km/h (1 Bft)
02/10/2011 13:25 29,6 C 38 % 1025,8 hPa 0,0 mm 2,5 km/h (1 Bft) N-NE 22 0 min 0 W/m 13,8 C 29,6 C 4,3 km/h (1 Bft)
02/10/2011 13:30 29,7 C 37 % 1025,9 hPa 0,0 mm 0,4 km/h (0 Bft) N-NE 22 0 min 0 W/m 13,4 C 29,7 C 3,2 km/h (1 Bft)
02/10/2011 13:35 29,7 C 36 % 1025,8 hPa 0,0 mm 0,4 km/h (0 Bft) N-NE 22 0 min 0 W/m 13,0 C 29,7 C 0,4 km/h (0 Bft)
02/10/2011 13:40 29,6 C 36 % 1025,8 hPa 0,0 mm 2,2 km/h (1 Bft) NE 45 0 min 0 W/m 12,9 C 29,6 C 3,2 km/h (1 Bft)
02/10/2011 13:45 29,6 C 35 % 1025,8 hPa 0,0 mm 2,2 km/h (1 Bft) NE 45 0 min 0 W/m 12,5 C 29,6 C 4,0 km/h (1 Bft)
02/10/2011 13:50 29,6 C 35 % 1025,8 hPa 0,0 mm 0,0 km/h (0 Bft) N-NE 22 0 min 0 W/m 12,5 C 29,6 C 0,0 km/h (0 Bft)
02/10/2011 13:55 29,7 C 36 % 1025,8 hPa 0,0 mm 2,9 km/h (1 Bft) N-NE 22 0 min 0 W/m 13,0 C 29,7 C 4,0 km/h (1 Bft)
02/10/2011 14:00 29,8 C 36 % 1025,9 hPa 0,0 mm 1,4 km/h (1 Bft) NO 315 0 min 0 W/m 13,1 C 29,8 C 4,7 km/h (1 Bft)
02/10/2011 14:05 29,8 C 36 % 1025,8 hPa 0,0 mm 0,0 km/h (0 Bft) N 360 0 min 0 W/m 13,1 C 29,8 C 4,0 km/h (1 Bft)
02/10/2011 14:10 29,8 C 36 % 1025,7 hPa 0,0 mm 0,0 km/h (0 Bft) N 360 0 min 0 W/m 13,1 C 29,8 C 0,0 km/h (0 Bft)
02/10/2011 14:15 29,8 C 36 % 1025,6 hPa 0,0 mm 0,0 km/h (0 Bft) O-NO 292 0 min 0 W/m 13,1 C 29,8 C 0,0 km/h (0 Bft)
02/10/2011 14:20 29,8 C 36 % 1025,5 hPa 0,0 mm 0,0 km/h (0 Bft) N 360 0 min 0 W/m 13,1 C 29,8 C 0,0 km/h (0 Bft)
02/10/2011 14:25 29,9 C 37 % 1025,3 hPa 0,0 mm 0,0 km/h (0 Bft) N 360 0 min 0 W/m 13,6 C 29,9 C 0,0 km/h (0 Bft)
02/10/2011 14:30 30,1 C 36 % 1025,2 hPa 0,0 mm 0,4 km/h (0 Bft) N-NE 22 0 min 0 W/m 13,4 C 30,1 C 0,4 km/h (0 Bft)
02/10/2011 14:35 30,2 C 36 % 1025,3 hPa 0,0 mm 1,8 km/h (1 Bft) N 360 0 min 0 W/m 13,4 C 30,2 C 4,0 km/h (1 Bft)
02/10/2011 14:40 30,3 C 37 % 1025,2 hPa 0,0 mm 3,2 km/h (1 Bft) E 90 0 min 0 W/m 14,0 C 30,3 C 3,2 km/h (1 Bft)
02/10/2011 14:45 30,1 C 35 % 1025,3 hPa 0,0 mm 0,0 km/h (0 Bft) E 90 0 min 0 W/m 12,9 C 30,1 C 0,0 km/h (0 Bft)
02/10/2011 14:50 29,9 C 36 % 1025,3 hPa 0,0 mm 2,9 km/h (1 Bft) N-NE 22 0 min 0 W/m 13,2 C 29,9 C 2,9 km/h (1 Bft)
02/10/2011 14:55 30,1 C 35 % 1025,0 hPa 0,0 mm 0,0 km/h (0 Bft) N-NE 22 0 min 0 W/m 12,9 C 30,1 C 0,0 km/h (0 Bft)
02/10/2011 15:00 30,2 C 35 % 1025,0 hPa 0,0 mm 0,4 km/h (0 Bft) NE 45 0 min 0 W/m 13,0 C 30,2 C 3,6 km/h (1 Bft)
02/10/2011 15:05 30,3 C 36 % 1024,9 hPa 0,0 mm 0,4 km/h (0 Bft) NE 45 0 min 0 W/m 13,5 C 30,3 C 3,6 km/h (1 Bft)
02/10/2011 15:10 30,3 C 35 % 1024,9 hPa 0,0 mm 0,0 km/h (0 Bft) N-NO 337 0 min 0 W/m 13,1 C 30,3 C 0,0 km/h (0 Bft)
02/10/2011 15:15 30,4 C 36 % 1024,8 hPa 0,0 mm 0,0 km/h (0 Bft) E-NE 67 0 min 0 W/m 13,6 C 30,4 C 0,0 km/h (0 Bft)
02/10/2011 15:20 30,3 C 35 % 1024,9 hPa 0,0 mm 2,5 km/h (1 Bft) E 90 0 min 0 W/m 13,1 C 30,3 C 3,6 km/h (1 Bft)
02/10/2011 15:25 30,1 C 36 % 1024,8 hPa 0,0 mm 1,4 km/h (1 Bft) E-NE 67 0 min 0 W/m 13,4 C 30,1 C 4,0 km/h (1 Bft)
02/10/2011 15:30 30,1 C 36 % 1024,8 hPa 0,0 mm 3,2 km/h (1 Bft) N-NE 22 0 min 0 W/m 13,4 C 30,1 C 6,8 km/h (2 Bft)
02/10/2011 15:35 30,3 C 36 % 1024,7 hPa 0,0 mm 1,1 km/h (1 Bft) N-NE 22 0 min 0 W/m 13,5 C 30,3 C 1,1 km/h (1 Bft)
02/10/2011 15:40 30,3 C 35 % 1024,8 hPa 0,0 mm 0,0 km/h (0 Bft) NE 45 0 min 0 W/m 13,1 C 30,3 C 0,0 km/h (0 Bft)
02/10/2011 15:45 30,2 C 35 % 1024,7 hPa 0,0 mm 0,4 km/h (0 Bft) E-NE 67 0 min 0 W/m 13,0 C 30,2 C 3,2 km/h (1 Bft)
02/10/2011 15:50 30,1 C 35 % 1024,7 hPa 0,0 mm 0,0 km/h (0 Bft) NE 45 0 min 0 W/m 12,9 C 30,1 C 0,0 km/h (0 Bft)
02/10/2011 15:55 30,1 C 36 % 1024,5 hPa 0,0 mm 0,7 km/h (0 Bft) NE 45 0 min 0 W/m 13,4 C 30,1 C 0,7 km/h (0 Bft)
02/10/2011 16:00 30,0 C 35 % 1024,4 hPa 0,0 mm 1,4 km/h (1 Bft) N-NE 22 0 min 0 W/m 12,8 C 30,0 C 1,4 km/h (1 Bft)
02/10/2011 16:05 29,9 C 35 % 1024,5 hPa 0,0 mm 0,0 km/h (0 Bft) E-NE 67 0 min 0 W/m 12,8 C 29,9 C 0,0 km/h (0 Bft)
02/10/2011 16:10 29,8 C 35 % 1024,5 hPa 0,0 mm 0,0 km/h (0 Bft) E-NE 67 0 min 0 W/m 12,7 C 29,8 C 0,0 km/h (0 Bft)
02/10/2011 16:15 29,8 C 36 % 1024,5 hPa 0,0 mm 0,0 km/h (0 Bft) E-NE 67 0 min 0 W/m 13,1 C 29,8 C 0,0 km/h (0 Bft)
02/10/2011 16:20 29,8 C 35 % 1024,4 hPa 0,0 mm 2,2 km/h (1 Bft) N-NO 337 0 min 0 W/m 12,7 C 29,8 C 6,8 km/h (2 Bft)
02/10/2011 16:25 29,8 C 35 % 1024,4 hPa 0,0 mm 0,4 km/h (0 Bft) N-NE 22 0 min 0 W/m 12,7 C 29,8 C 2,9 km/h (1 Bft)
02/10/2011 16:30 29,7 C 36 % 1024,4 hPa 0,0 mm 3,6 km/h (1 Bft) NO 315 0 min 0 W/m 13,0 C 29,7 C 6,1 km/h (2 Bft)
02/10/2011 16:35 29,6 C 36 % 1024,4 hPa 0,0 mm 2,2 km/h (1 Bft) N 360 0 min 0 W/m 12,9 C 29,6 C 3,6 km/h (1 Bft)
02/10/2011 16:40 29,6 C 35 % 1024,4 hPa 0,0 mm 3,2 km/h (1 Bft) N 360 0 min 0 W/m 12,5 C 29,6 C 3,2 km/h (1 Bft)
02/10/2011 16:45 29,5 C 36 % 1024,3 hPa 0,0 mm 0,4 km/h (0 Bft) N-NE 22 0 min 0 W/m 12,8 C 29,5 C 3,2 km/h (1 Bft)
02/10/2011 16:50 29,4 C 35 % 1024,4 hPa 0,0 mm 3,2 km/h (1 Bft) N-NE 22 0 min 0 W/m 12,3 C 29,4 C 6,5 km/h (2 Bft)
02/10/2011 16:55 29,4 C 35 % 1024,3 hPa 0,0 mm 3,6 km/h (1 Bft) N 360 0 min 0 W/m 12,3 C 29,4 C 3,6 km/h (1 Bft)
02/10/2011 17:00 29,3 C 35 % 1024,3 hPa 0,0 mm 2,9 km/h (1 Bft) N-NE 22 0 min 0 W/m 12,2 C 29,3 C 4,3 km/h (1 Bft)
02/10/2011 17:05 29,1 C 36 % 1024,2 hPa 0,0 mm 2,5 km/h (1 Bft) N-NE 22 0 min 0 W/m 12,5 C 29,1 C 3,6 km/h (1 Bft)
02/10/2011 17:10 29,1 C 36 % 1024,2 hPa 0,0 mm 4,7 km/h (1 Bft) N-NE 22 0 min 0 W/m 12,5 C 29,1 C 4,7 km/h (1 Bft)
02/10/2011 17:15 29,0 C 35 % 1024,2 hPa 0,0 mm 0,0 km/h (0 Bft) N 360 0 min 0 W/m 12,0 C 29,0 C 0,0 km/h (0 Bft)
02/10/2011 17:20 28,9 C 35 % 1024,2 hPa 0,0 mm 0,0 km/h (0 Bft) N 360 0 min 0 W/m 11,9 C 28,9 C 0,0 km/h (0 Bft)
02/10/2011 17:25 28,8 C 35 % 1024,2 hPa 0,0 mm 0,0 km/h (0 Bft) N-NE 22 0 min 0 W/m 11,8 C 28,8 C 0,0 km/h (0 Bft)
02/10/2011 17:30 28,8 C 35 % 1024,2 hPa 0,0 mm 0,0 km/h (0 Bft) N-NE 22 0 min 0 W/m 11,8 C 28,8 C 0,0 km/h (0 Bft)
02/10/2011 17:35 28,8 C 35 % 1024,2 hPa 0,0 mm 0,0 km/h (0 Bft) N 360 0 min 0 W/m 11,8 C 28,8 C 0,0 km/h (0 Bft)
02/10/2011 17:40 28,8 C 35 % 1024,2 hPa 0,0 mm 1,8 km/h (1 Bft) N-NO 337 0 min 0 W/m 11,8 C 28,8 C 4,3 km/h (1 Bft)
02/10/2011 17:45 28,7 C 35 % 1024,2 hPa 0,0 mm 1,4 km/h (1 Bft) N 360 0 min 0 W/m 11,7 C 28,7 C 6,1 km/h (2 Bft)
02/10/2011 17:50 28,6 C 35 % 1024,2 hPa 0,0 mm 0,0 km/h (0 Bft) N 360 0 min 0 W/m 11,6 C 28,6 C 0,0 km/h (0 Bft)
02/10/2011 17:55 28,5 C 35 % 1024,2 hPa 0,0 mm 0,7 km/h (0 Bft) N-NE 22 0 min 0 W/m 11,5 C 28,5 C 4,0 km/h (1 Bft)
02/10/2011 18:00 28,4 C 35 % 1024,2 hPa 0,0 mm 2,5 km/h (1 Bft) N 360 0 min 0 W/m 11,4 C 28,4 C 4,3 km/h (1 Bft)
02/10/2011 18:05 28,3 C 35 % 1024,2 hPa 0,0 mm 0,0 km/h (0 Bft) N 360 0 min 0 W/m 11,4 C 28,3 C 0,0 km/h (0 Bft)
02/10/2011 18:10 28,2 C 36 % 1024,1 hPa 0,0 mm 0,4 km/h (0 Bft) N-NE 22 0 min 0 W/m 11,7 C 28,2 C 3,2 km/h (1 Bft)
02/10/2011 18:15 28,1 C 36 % 1024,0 hPa 0,0 mm 1,8 km/h (1 Bft) N 360 0 min 0 W/m 11,6 C 28,1 C 3,6 km/h (1 Bft)
02/10/2011 18:20 27,9 C 36 % 1024,0 hPa 0,0 mm 0,4 km/h (0 Bft) N-NE 22 0 min 0 W/m 11,4 C 27,9 C 0,4 km/h (0 Bft)
02/10/2011 18:25 27,8 C 36 % 1024,0 hPa 0,0 mm 0,0 km/h (0 Bft) N-NE 22 0 min 0 W/m 11,3 C 27,8 C 0,0 km/h (0 Bft)
02/10/2011 18:30 27,7 C 37 % 1024,0 hPa 0,0 mm 1,1 km/h (1 Bft) N-NE 22 0 min 0 W/m 11,7 C 27,7 C 4,0 km/h (1 Bft)
02/10/2011 18:35 27,6 C 37 % 1024,1 hPa 0,0 mm 0,0 km/h (0 Bft) N 360 0 min 0 W/m 11,6 C 27,6 C 0,0 km/h (0 Bft)
02/10/2011 18:40 27,5 C 37 % 1024,2 hPa 0,0 mm 0,0 km/h (0 Bft) N 360 0 min 0 W/m 11,5 C 27,5 C 0,0 km/h (0 Bft)
02/10/2011 18:45 27,4 C 38 % 1024,1 hPa 0,0 mm 0,0 km/h (0 Bft) NE 45 0 min 0 W/m 11,8 C 27,4 C 0,0 km/h (0 Bft)
02/10/2011 18:50 27,3 C 38 % 1024,2 hPa 0,0 mm 0,0 km/h (0 Bft) NE 45 0 min 0 W/m 11,7 C 27,3 C 0,0 km/h (0 Bft)
02/10/2011 18:55 27,1 C 38 % 1024,1 hPa 0,0 mm 0,0 km/h (0 Bft) NE 45 0 min 0 W/m 11,5 C 27,1 C 0,0 km/h (0 Bft)
02/10/2011 19:00 26,8 C 39 % 1024,1 hPa 0,0 mm 0,0 km/h (0 Bft) NE 45 0 min 0 W/m 11,7 C 26,8 C 0,0 km/h (0 Bft)
02/10/2011 19:05 26,4 C 39 % 1024,1 hPa 0,0 mm 0,0 km/h (0 Bft) NE 45 0 min 0 W/m 11,3 C 26,4 C 0,0 km/h (0 Bft)
02/10/2011 19:10 26,1 C 40 % 1024,2 hPa 0,0 mm 0,0 km/h (0 Bft) NE 45 0 min 0 W/m 11,4 C 26,1 C 0,0 km/h (0 Bft)
02/10/2011 19:15 25,6 C 40 % 1024,2 hPa 0,0 mm 0,0 km/h (0 Bft) NE 45 0 min 0 W/m 11,0 C 25,6 C 0,0 km/h (0 Bft)
02/10/2011 19:20 25,2 C 41 % 1024,2 hPa 0,0 mm 0,0 km/h (0 Bft) NE 45 0 min 0 W/m 11,0 C 25,2 C 0,0 km/h (0 Bft)
02/10/2011 19:25 24,8 C 41 % 1024,2 hPa 0,0 mm 0,0 km/h (0 Bft) NE 45 0 min 0 W/m 10,6 C 24,8 C 0,0 km/h (0 Bft)
02/10/2011 19:30 24,3 C 42 % 1024,3 hPa 0,0 mm 0,0 km/h (0 Bft) NE 45 0 min 0 W/m 10,6 C 24,3 C 0,0 km/h (0 Bft)
02/10/2011 19:35 23,8 C 43 % 1024,3 hPa 0,0 mm 0,0 km/h (0 Bft) NE 45 0 min 0 W/m 10,5 C 23,8 C 0,0 km/h (0 Bft)
02/10/2011 19:40 23,3 C 43 % 1024,4 hPa 0,0 mm 0,0 km/h (0 Bft) NE 45 0 min 0 W/m 10,0 C 23,3 C 0,0 km/h (0 Bft)
02/10/2011 19:45 22,9 C 44 % 1024,4 hPa 0,0 mm 0,0 km/h (0 Bft) NE 45 0 min 0 W/m 10,0 C 22,9 C 0,0 km/h (0 Bft)
02/10/2011 19:50 22,5 C 45 % 1024,4 hPa 0,0 mm 0,0 km/h (0 Bft) NE 45 0 min 0 W/m 10,0 C 22,5 C 0,0 km/h (0 Bft)
02/10/2011 19:55 22,1 C 46 % 1024,5 hPa 0,0 mm 0,0 km/h (0 Bft) NE 45 0 min 0 W/m 9,9 C 22,1 C 0,0 km/h (0 Bft)
02/10/2011 20:00 21,7 C 47 % 1024,4 hPa 0,0 mm 0,0 km/h (0 Bft) NE 45 0 min 0 W/m 9,9 C 21,7 C 0,0 km/h (0 Bft)
02/10/2011 20:05 21,3 C 48 % 1024,5 hPa 0,0 mm 0,0 km/h (0 Bft) NE 45 0 min 0 W/m 9,8 C 21,3 C 0,0 km/h (0 Bft)
02/10/2011 20:10 20,9 C 48 % 1024,4 hPa 0,0 mm 0,0 km/h (0 Bft) NE 45 0 min 0 W/m 9,5 C 20,9 C 0,0 km/h (0 Bft)
02/10/2011 20:15 20,6 C 49 % 1024,5 hPa 0,0 mm 0,0 km/h (0 Bft) NE 45 0 min 0 W/m 9,5 C 20,6 C 0,0 km/h (0 Bft)
02/10/2011 20:20 20,3 C 49 % 1024,4 hPa 0,0 mm 0,0 km/h (0 Bft) NE 45 0 min 0 W/m 9,2 C 20,3 C 0,0 km/h (0 Bft)
02/10/2011 20:25 19,9 C 50 % 1024,4 hPa 0,0 mm 0,0 km/h (0 Bft) NE 45 0 min 0 W/m 9,2 C 19,9 C 0,0 km/h (0 Bft)
02/10/2011 20:30 19,6 C 51 % 1024,5 hPa 0,0 mm 0,0 km/h (0 Bft) NE 45 0 min 0 W/m 9,2 C 19,6 C 0,0 km/h (0 Bft)
02/10/2011 20:35 19,3 C 51 % 1024,6 hPa 0,0 mm 0,0 km/h (0 Bft) NE 45 0 min 0 W/m 8,9 C 19,3 C 0,0 km/h (0 Bft)
02/10/2011 20:40 19,1 C 52 % 1024,5 hPa 0,0 mm 0,0 km/h (0 Bft) NE 45 0 min 0 W/m 9,0 C 19,1 C 0,0 km/h (0 Bft)
02/10/2011 20:45 18,8 C 53 % 1024,6 hPa 0,0 mm 0,0 km/h (0 Bft) NE 45 0 min 0 W/m 9,0 C 18,8 C 0,0 km/h (0 Bft)
02/10/2011 20:50 18,6 C 55 % 1024,6 hPa 0,0 mm 0,0 km/h (0 Bft) NE 45 0 min 0 W/m 9,4 C 18,6 C 0,0 km/h (0 Bft)
02/10/2011 20:55 18,4 C 55 % 1024,6 hPa 0,0 mm 0,0 km/h (0 Bft) NE 45 0 min 0 W/m 9,2 C 18,4 C 0,0 km/h (0 Bft)
02/10/2011 21:00 18,3 C 55 % 1024,6 hPa 0,0 mm 0,0 km/h (0 Bft) NE 45 0 min 0 W/m 9,1 C 18,3 C 0,0 km/h (0 Bft)
02/10/2011 21:05 18,1 C 55 % 1024,5 hPa 0,0 mm 0,0 km/h (0 Bft) NE 45 0 min 0 W/m 8,9 C 18,1 C 0,0 km/h (0 Bft)
02/10/2011 21:10 17,9 C 56 % 1024,6 hPa 0,0 mm 0,0 km/h (0 Bft) NE 45 0 min 0 W/m 9,0 C 17,9 C 0,0 km/h (0 Bft)
02/10/2011 21:15 17,8 C 56 % 1024,5 hPa 0,0 mm 0,0 km/h (0 Bft) NE 45 0 min 0 W/m 8,9 C 17,8 C 0,0 km/h (0 Bft)
02/10/2011 21:20 17,6 C 56 % 1024,5 hPa 0,0 mm 0,0 km/h (0 Bft) NE 45 0 min 0 W/m 8,7 C 17,6 C 0,0 km/h (0 Bft)
02/10/2011 21:25 17,4 C 57 % 1024,5 hPa 0,0 mm 0,0 km/h (0 Bft) NE 45 0 min 0 W/m 8,8 C 17,4 C 0,0 km/h (0 Bft)
02/10/2011 21:30 17,3 C 58 % 1024,6 hPa 0,0 mm 0,0 km/h (0 Bft) NE 45 0 min 0 W/m 9,0 C 17,3 C 0,0 km/h (0 Bft)
02/10/2011 21:35 17,2 C 58 % 1024,6 hPa 0,0 mm 0,0 km/h (0 Bft) NE 45 0 min 0 W/m 8,9 C 17,2 C 0,0 km/h (0 Bft)
02/10/2011 21:40 17,1 C 58 % 1024,6 hPa 0,0 mm 0,0 km/h (0 Bft) NE 45 0 min 0 W/m 8,8 C 17,1 C 0,0 km/h (0 Bft)
02/10/2011 21:45 16,9 C 59 % 1024,6 hPa 0,0 mm 0,0 km/h (0 Bft) E-NE 67 0 min 0 W/m 8,8 C 16,9 C 0,0 km/h (0 Bft)
02/10/2011 21:50 16,8 C 59 % 1024,6 hPa 0,0 mm 0,0 km/h (0 Bft) E 90 0 min 0 W/m 8,7 C 16,8 C 0,0 km/h (0 Bft)
02/10/2011 21:55 16,8 C 59 % 1024,6 hPa 0,0 mm 0,0 km/h (0 Bft) SE 135 0 min 0 W/m 8,7 C 16,8 C 3,2 km/h (1 Bft)
02/10/2011 22:00 16,8 C 60 % 1024,6 hPa 0,0 mm 0,4 km/h (0 Bft) SE 135 0 min 0 W/m 9,0 C 16,8 C 3,2 km/h (1 Bft)
02/10/2011 22:05 16,8 C 61 % 1024,7 hPa 0,0 mm 0,4 km/h (0 Bft) E-SE 112 0 min 0 W/m 9,2 C 16,8 C 3,6 km/h (1 Bft)
02/10/2011 22:10 16,8 C 62 % 1024,8 hPa 0,0 mm 0,0 km/h (0 Bft) E-SE 112 0 min 0 W/m 9,5 C 16,8 C 0,0 km/h (0 Bft)
02/10/2011 22:15 16,8 C 61 % 1024,8 hPa 0,0 mm 0,0 km/h (0 Bft) E-SE 112 0 min 0 W/m 9,2 C 16,8 C 0,0 km/h (0 Bft)
02/10/2011 22:20 16,6 C 62 % 1024,8 hPa 0,0 mm 0,0 km/h (0 Bft) E-SE 112 0 min 0 W/m 9,3 C 16,6 C 0,0 km/h (0 Bft)
02/10/2011 22:25 16,5 C 62 % 1024,8 hPa 0,0 mm 0,0 km/h (0 Bft) E-SE 112 0 min 0 W/m 9,2 C 16,5 C 0,0 km/h (0 Bft)
02/10/2011 22:30 16,4 C 62 % 1024,9 hPa 0,0 mm 0,0 km/h (0 Bft) E-SE 112 0 min 0 W/m 9,1 C 16,4 C 0,0 km/h (0 Bft)
02/10/2011 22:35 16,3 C 63 % 1024,8 hPa 0,0 mm 0,0 km/h (0 Bft) E-SE 112 0 min 0 W/m 9,2 C 16,3 C 0,0 km/h (0 Bft)
02/10/2011 22:40 16,2 C 63 % 1024,9 hPa 0,0 mm 0,4 km/h (0 Bft) E 90 0 min 0 W/m 9,1 C 16,2 C 0,4 km/h (0 Bft)
02/10/2011 22:45 16,1 C 64 % 1024,8 hPa 0,0 mm 0,7 km/h (0 Bft) SE 135 0 min 0 W/m 9,3 C 16,1 C 3,2 km/h (1 Bft)
02/10/2011 22:50 16,1 C 64 % 1024,9 hPa 0,0 mm 0,0 km/h (0 Bft) E-SE 112 0 min 0 W/m 9,3 C 16,1 C 0,0 km/h (0 Bft)
02/10/2011 22:55 16,0 C 64 % 1024,8 hPa 0,0 mm 0,0 km/h (0 Bft) E-SE 112 0 min 0 W/m 9,2 C 16,0 C 0,0 km/h (0 Bft)
02/10/2011 23:00 15,8 C 64 % 1024,8 hPa 0,0 mm 0,0 km/h (0 Bft) E-SE 112 0 min 0 W/m 9,0 C 15,8 C 0,0 km/h (0 Bft)
02/10/2011 23:05 15,8 C 65 % 1024,8 hPa 0,0 mm 0,0 km/h (0 Bft) SE 135 0 min 0 W/m 9,2 C 15,8 C 0,0 km/h (0 Bft)
02/10/2011 23:10 15,6 C 65 % 1024,8 hPa 0,0 mm 0,0 km/h (0 Bft) SE 135 0 min 0 W/m 9,0 C 15,6 C 0,0 km/h (0 Bft)
02/10/2011 23:15 15,3 C 65 % 1024,8 hPa 0,0 mm 0,0 km/h (0 Bft) SE 135 0 min 0 W/m 8,8 C 15,3 C 0,0 km/h (0 Bft)
02/10/2011 23:20 15,1 C 66 % 1024,8 hPa 0,0 mm 0,0 km/h (0 Bft) SE 135 0 min 0 W/m 8,8 C 15,1 C 0,0 km/h (0 Bft)
_ Min-Heure 08:30 18:05 18:30 - 23:20 - - - - 08:30 08:30 23:20
Minimum _ 11,3 C 35 % 1024,0 hPa - 0,0 km/h (0 Bft) - - - - 8,0 C 11,3 C 0,0 km/h (0 Bft)
_ Max-Heure 15:15 09:00 12:40 23:20 17:10 - - 10:00 23:20 11:50 15:15 08:50
Maximum _ 30,4 C 82 % 1026,2 hPa 0,0 mm 4,7 km/h
N-NE (1 Bft)
- - 2 min 0 W/m 14,9 C 30,4 C 9,4 km/h
N-NE (2 Bft)
Moyenne _ 20,2 C 59 % 1024,8 hPa #0,0 mm 0,9 km/h (0 Bft) E-SE - #48 min. 0 W/m 11,0 C 20,2 C 1,9 km/h (1 Bft)
Saint Bonnet de Bellac- Haute Vienne - France